Regional Weather Roundup
Issued by NWS Little Rock, AR

Home | Current Version | Previous Version | Graphics & Text | Print | Product List | Glossary On
Versions: 1 2 3 4 5 6 7 8 9 10 11 12 13 14 15 16 17 18 19 20 21 22 23 24 25 26 27 28 29 30 31 32 33 34 35 36 37 38 39 40 41 42 43 44 45 46 47 48 49 50
131
ASUS44 KLZK 210610
RWRLZK
ARKANSAS STATE WEATHER ROUNDUP
NATIONAL WEATHER SERVICE LITTLE ROCK AR
ISSUED BY NATIONAL WEATHER SERVICE MEMPHIS TN
100 AM CDT THU SEP 21 2017

NOTE: "FAIR" INDICATES FEW OR NO CLOUDS BELOW 12,000 FEET WITH NO
SIGNIFICANT WEATHER AND/OR OBSTRUCTIONS TO VISIBILITY.

ARZ001-003-010-029-210700-
NORTHWEST ARKANSAS

CITY           SKY/WX    TMP DP  RH WIND       PRES   REMARKS
FORT SMITH     CLEAR     79  71  76 E5        29.93R
6HR MIN TEMP:  79; 6HR MAX TEMP:  90;

HARRISON       CLEAR     73  69  87 S6        29.99R
6HR MIN TEMP:  73; 6HR MAX TEMP:  84;

BENTONVILLE    CLEAR     76  69  79 S5        29.99R
6HR MIN TEMP:  76; 6HR MAX TEMP:  85;

ROGERS         CLEAR     75  70  84 S8        29.99R
6HR MIN TEMP:  75; 6HR MAX TEMP:  84;

SILOAM SPGS    CLEAR     76  70  82 S6        29.97R
6HR MIN TEMP:  76; 6HR MAX TEMP:  86;

HIGHFILL       CLEAR     76  71  85 S7        29.97R
6HR MIN TEMP:  76; 6HR MAX TEMP:  85;

$$

ARZ004-005-016-210700-
NORTH CENTRAL ARKANSAS

CITY           SKY/WX    TMP DP  RH WIND       PRES   REMARKS
BATESVILLE     CLEAR    N/A N/A N/A S6        29.98R
FLIPPIN        CLEAR     78  71  79 VRB3      29.97R
6HR MIN TEMP:  78; 6HR MAX TEMP:  87;

MTN HOME       CLEAR     75  71  87 S3        29.97R
6HR MIN TEMP:  74; 6HR MAX TEMP:  85;

$$

ARZ040-041-210700-
WEST CENTRAL ARKANSAS

CITY           SKY/WX    TMP DP  RH WIND       PRES   REMARKS
MOUNT IDA      CLEAR     79  68  69 VRB3      29.97R
6HR MIN TEMP:  79; 6HR MAX TEMP:  86;

$$

ARZ017-025-026-028-210700-
NORTHEAST ARKANSAS

CITY           SKY/WX    TMP DP  RH WIND       PRES   REMARKS
JONESBORO      CLEAR     72  72 100 CALM      29.97S
6HR MIN TEMP:  71; 6HR MAX TEMP:  85;

NEWPORT        CLEAR     73  70  90 S5        29.97S
6HR MIN TEMP:  73; 6HR MAX TEMP:  84;

BLYTHEVILLE    CLEAR     76  73  91 S6        29.98S
6HR MIN TEMP:  75; 6HR MAX TEMP:  83;

$$

ARZ022-033-042-044-210700-
CENTRAL ARKANSAS

CITY           SKY/WX    TMP DP  RH WIND       PRES   REMARKS
LITTLE ROCK    CLEAR     76  74  93 S8        29.97R
6HR MIN TEMP:  75; 6HR MAX TEMP:  84;

JACKSONVILLE   CLEAR     78  74  88 S3        29.96S
6HR MIN TEMP:  78; 6HR MAX TEMP:  87;

SEARCY         CLEAR     73  73 100 CALM      29.98S
6HR MIN TEMP:  73; 6HR MAX TEMP:  85;

HOT SPRINGS    CLEAR     80  69  69 S5        29.99R
6HR MIN TEMP:  80; 6HR MAX TEMP:  89;

RUSSELLVILLE   CLEAR     75  72  90 CALM      29.95R
6HR MIN TEMP:  74; 6HR MAX TEMP:  88;

$$

ARZ036-210700-
EAST ARKANSAS

CITY           SKY/WX    TMP DP  RH WIND       PRES   REMARKS
WEST MEMPHIS   CLEAR     74  74 100 S5        29.97S
6HR MIN TEMP:  73; 6HR MAX TEMP:  82;

$$

ARZ050-070-073-210700-
SOUTHWEST ARKANSAS

CITY           SKY/WX    TMP DP  RH WIND       PRES   REMARKS
TEXARKANA      CLEAR     75  69  81 S7        29.97S
6HR MIN TEMP:  75; 6HR MAX TEMP:  86;

EL DORADO      CLEAR     71  68  90 CALM      29.98S
6HR MIN TEMP:  71; 6HR MAX TEMP:  85;

DEQUEEN        CLEAR     78  74  87 S6        29.94S
6HR MIN TEMP:  77; 6HR MAX TEMP:  88;

$$

ARZ056-057-069-210700-
SOUTHEAST ARKANSAS

CITY           SKY/WX    TMP DP  RH WIND       PRES   REMARKS
PINE BLUFF     CLEAR     75  71  87 S5        29.98R
6HR MIN TEMP:  73; 6HR MAX TEMP:  83;

STUTTGART      CLEAR     76  72  87 S9        29.98R
6HR MIN TEMP:  74; 6HR MAX TEMP:  87;

MONTICELLO     CLEAR     76  72  87 S5        29.98S
6HR MIN TEMP:  76; 6HR MAX TEMP:  85;

$$





USA.gov is the U.S. government's official web portal to all federal, state and local government web resources and services.